Location: Greenwich
(51.4790°N, 0.0090°E)
Time: 21:01:55
(UTC+01:00)

N. Korean satellite - Pass Details

Date: 28 September 2021
Orbit: 450 x 494 km, 97.3° (Epoch: 28 October)

Event Time Altitude Azimuth Distance (km) Brightness Sun altitude
Rises 06:11:31 0° 16° (NNE) 2,536 10.5 -7.7°
Reaches altitude 10° 06:13:36 10° 21° (NNE) 1,661 9.6 -7.4°
Maximum altitude 06:17:08 57° 101° (E) 578 7.4 -6.9°
Drops below altitude 10° 06:20:40 10° 180° (S) 1,671 9.2 -6.3°
Sets 06:22:46 0° 185° (S) 2,554 10.1 -6.0°
